| time (UTC) | temp F | wind direction | speed MPH | gust MPH | rain 1hr in | rain 24hr in | rain mn in | humidity % | barometer mb |
| 20260505114056 | 46 | 231 | 0.0 | 0.0 | 0.00 | 0.00 | 0.00 | 93 | 971.4 |
| 20260505113554 | 45 | 231 | 0.0 | 0.0 | 0.00 | 0.00 | 0.00 | 93 | 971.4 |
| 20260505113050 | 45 | 231 | 0.0 | 0.0 | 0.00 | 0.00 | 0.00 | 93 | 971.3 |
| 20260505111546 | 43 | 231 | 0.0 | 0.0 | 0.00 | 0.00 | 0.00 | 93 | 971.3 |
| 20260505111046 | 43 | 231 | 0.0 | 0.0 | 0.00 | 0.00 | 0.00 | 93 | 971.2 |
| 20260505110546 | 43 | 231 | 0.0 | 0.0 | 0.00 | 0.00 | 0.00 | 93 | 971.2 |
| 20260505102032 | 44 | 231 | 0.0 | 0.0 | 0.00 | 0.00 | 0.00 | 92 | 971.1 |
| 20260505101530 | 44 | 231 | 0.0 | 0.0 | 0.00 | 0.00 | 0.00 | 92 | 971.1 |
| 20260505101030 | 44 | 231 | 0.0 | 0.0 | 0.00 | 0.00 | 0.00 | 92 | 971.1 |
| 20260505100530 | 45 | 231 | 0.0 | 0.0 | 0.00 | 0.00 | 0.00 | 91 | 971.0 |
| 20260505100028 | 45 | 231 | 0.0 | 0.0 | 0.00 | 0.00 | 0.00 | 91 | 971.0 |
| 20260505095017 | 45 | 231 | 0.0 | 2.0 | 0.00 | 0.00 | 0.00 | 91 | 971.1 |
| 20260505094509 | 45 | 231 | 0.0 | 0.0 | 0.00 | 0.00 | 0.00 | 91 | 971.1 |
| 20260505094004 | 46 | 231 | 0.0 | 0.0 | 0.00 | 0.00 | 0.00 | 90 | 971.1 |
| 20260505092952 | 46 | 231 | 0.0 | 0.0 | 0.00 | 0.00 | 0.00 | 89 | 971.0 |
| 20260505092447 | 46 | 231 | 0.0 | 0.0 | 0.00 | 0.00 | 0.00 | 89 | 971.0 |
| 20260505091940 | 47 | 231 | 0.0 | 0.0 | 0.00 | 0.00 | 0.00 | 88 | 971.0 |
| 20260505091433 | 47 | 231 | 0.0 | 0.0 | 0.00 | 0.00 | 0.00 | 88 | 970.9 |
| 20260505090927 | 48 | 231 | 0.0 | 0.0 | 0.00 | 0.00 | 0.00 | 88 | 970.8 |
| 20260505090421 | 48 | 231 | 0.0 | 0.0 | 0.00 | 0.00 | 0.00 | 87 | 970.7 |
| 20260505085915 | 48 | 231 | 0.0 | 0.0 | 0.00 | 0.00 | 0.00 | 86 | 970.8 |
| 20260505085409 | 49 | 231 | 0.0 | 0.0 | 0.00 | 0.00 | 0.00 | 86 | 970.7 |
| 20260505084904 | 49 | 231 | 0.0 | 0.0 | 0.00 | 0.00 | 0.00 | 84 | 970.5 |
| 20260505084358 | 50 | 231 | 0.0 | 0.0 | 0.00 | 0.00 | 0.00 | 83 | 970.5 |
| 20260505083852 | 50 | 231 | 0.0 | 0.0 | 0.00 | 0.00 | 0.00 | 83 | 970.4 |
| 20260505083346 | 51 | 231 | 0.0 | 0.0 | 0.00 | 0.00 | 0.00 | 82 | 970.3 |
| 20260505082839 | 51 | 231 | 0.0 | 0.0 | 0.00 | 0.00 | 0.00 | 80 | 970.3 |
| 20260505082334 | 52 | 231 | 1.0 | 3.0 | 0.00 | 0.00 | 0.00 | 80 | 970.4 |
| 20260505081827 | 52 | 231 | 1.0 | 3.0 | 0.00 | 0.00 | 0.00 | 80 | 970.3 |
| 20260505081321 | 52 | 231 | 1.0 | 3.0 | 0.00 | 0.00 | 0.00 | 81 | 970.3 |
| 20260505080817 | 52 | 231 | 0.0 | 0.0 | 0.00 | 0.00 | 0.00 | 79 | 970.3 |
| 20260505075805 | 53 | 231 | 0.0 | 2.0 | 0.00 | 0.00 | 0.00 | 77 | 970.1 |
| 20260505074752 | 54 | 231 | 0.0 | 2.0 | 0.00 | 0.00 | 0.00 | 76 | 969.9 |
| 20260505073233 | 55 | 230 | 1.0 | 5.0 | 0.00 | 0.00 | 0.00 | 74 | 969.9 |
| 20260505072727 | 56 | 166 | 1.0 | 5.0 | 0.00 | 0.00 | 0.00 | 73 | 969.9 |
| 20260505072222 | 56 | 202 | 1.0 | 5.0 | 0.00 | 0.00 | 0.00 | 72 | 969.9 |
| 20260505071716 | 56 | 202 | 3.0 | 9.0 | 0.00 | 0.00 | 0.00 | 73 | 969.9 |
| 20260505071210 | 55 | 183 | 2.0 | 9.0 | 0.00 | 0.00 | 0.00 | 73 | 969.8 |
| 20260505070158 | 55 | 251 | 1.0 | 3.0 | 0.00 | 0.00 | 0.00 | 73 | 969.7 |
| 20260505065653 | 56 | 220 | 1.0 | 3.0 | 0.00 | 0.00 | 0.00 | 72 | 969.6 |
| 20260505064640 | 57 | 173 | 0.0 | 0.0 | 0.00 | 0.00 | 0.00 | 70 | 969.9 |
| 20260505064134 | 57 | 173 | 0.0 | 4.0 | 0.00 | 0.00 | 0.00 | 70 | 969.9 |
| 20260505063627 | 57 | 173 | 1.0 | 4.0 | 0.00 | 0.00 | 0.00 | 69 | 969.9 |
| 20260505063122 | 58 | 246 | 0.0 | 2.0 | 0.00 | 0.00 | 0.00 | 69 | 969.9 |
| 20260505062616 | 58 | 246 | 0.0 | 2.0 | 0.00 | 0.00 | 0.00 | 69 | 969.9 |
| 20260505061604 | 58 | 246 | 0.0 | 0.0 | 0.00 | 0.00 | 0.00 | 67 | 969.9 |
| 20260505061058 | 59 | 246 | 0.0 | 1.0 | 0.00 | 0.00 | 0.00 | 67 | 970.0 |
| 20260505060552 | 59 | 246 | 0.0 | 3.0 | 0.00 | 0.00 | 0.00 | 66 | 970.0 |
| 20260505055539 | 59 | 246 | 0.0 | 2.0 | 0.00 | 0.00 | 0.00 | 66 | 970.0 |
| 20260505055034 | 60 | 246 | 1.0 | 3.0 | 0.00 | 0.00 | 0.00 | 64 | 970.0 |
| 20260505054527 | 60 | 246 | 1.0 | 5.0 | 0.00 | 0.00 | 0.00 | 64 | 970.0 |
| 20260505053517 | 60 | 169 | 1.0 | 5.0 | 0.00 | 0.00 | 0.00 | 64 | 970.0 |
| 20260505053010 | 60 | 225 | 2.0 | 8.0 | 0.00 | 0.00 | 0.00 | 63 | 970.0 |
| 20260505052504 | 60 | 194 | 2.0 | 8.0 | 0.00 | 0.00 | 0.00 | 63 | 970.0 |
| 20260505051958 | 61 | 235 | 1.0 | 7.0 | 0.00 | 0.00 | 0.00 | 63 | 970.0 |
| 20260505051452 | 61 | 151 | 2.0 | 7.0 | 0.00 | 0.00 | 0.00 | 63 | 969.9 |
| 20260505050952 | 61 | 177 | 3.0 | 7.0 | 0.00 | 0.00 | 0.00 | 63 | 969.9 |
| 20260505050452 | 61 | 184 | 3.0 | 7.0 | 0.00 | 0.00 | 0.00 | 63 | 969.9 |
| 20260505040947 | 53 | 242 | 0.0 | 2.0 | 0.00 | 0.00 | 0.00 | 79 | 969.9 |
| 20260505040446 | 53 | 242 | 0.0 | 2.0 | 0.00 | 0.00 | 0.00 | 80 | 970.0 |
| 20260505035947 | 53 | 242 | 0.0 | 0.0 | 0.00 | 0.00 | 0.00 | 79 | 970.0 |
| 20260505035440 | 53 | 242 | 0.0 | 0.0 | 0.00 | 0.00 | 0.00 | 79 | 970.0 |
| 20260505034934 | 54 | 242 | 0.0 | 0.0 | 0.00 | 0.00 | 0.00 | 78 | 970.1 |
| 20260505034427 | 54 | 242 | 0.0 | 0.0 | 0.00 | 0.00 | 0.00 | 77 | 970.1 |
| 20260505033922 | 54 | 242 | 0.0 | 0.0 | 0.00 | 0.00 | 0.00 | 77 | 970.2 |
| 20260505033415 | 54 | 242 | 0.0 | 0.0 | 0.00 | 0.00 | 0.00 | 77 | 970.2 |
| 20260505032910 | 55 | 242 | 0.0 | 0.0 | 0.00 | 0.00 | 0.00 | 76 | 970.2 |
| 20260505032404 | 55 | 242 | 0.0 | 0.0 | 0.00 | 0.00 | 0.00 | 75 | 970.2 |
| 20260505031858 | 55 | 242 | 0.0 | 0.0 | 0.00 | 0.00 | 0.00 | 75 | 970.3 |
| 20260505031352 | 56 | 242 | 0.0 | 0.0 | 0.00 | 0.00 | 0.00 | 74 | 970.2 |
| 20260505030846 | 56 | 242 | 0.0 | 0.0 | 0.00 | 0.00 | 0.00 | 73 | 970.3 |
| 20260505030341 | 57 | 242 | 0.0 | 0.0 | 0.00 | 0.00 | 0.00 | 71 | 970.3 |
| 20260505025834 | 57 | 242 | 0.0 | 0.0 | 0.00 | 0.00 | 0.00 | 70 | 970.3 |
| 20260505025327 | 58 | 242 | 0.0 | 0.0 | 0.00 | 0.00 | 0.00 | 70 | 970.3 |
| 20260505024822 | 58 | 242 | 0.0 | 0.0 | 0.00 | 0.00 | 0.00 | 68 | 970.3 |
| 20260505024316 | 58 | 242 | 0.0 | 0.0 | 0.00 | 0.00 | 0.00 | 67 | 970.4 |
| 20260505023303 | 59 | 242 | 0.0 | 0.0 | 0.00 | 0.00 | 0.00 | 67 | 970.2 |
| 20260505022759 | 60 | 242 | 0.0 | 0.0 | 0.00 | 0.00 | 0.00 | 65 | 970.2 |
| 20260505022251 | 60 | 242 | 0.0 | 0.0 | 0.00 | 0.00 | 0.00 | 65 | 970.2 |
| 20260505021245 | 61 | 242 | 0.0 | 0.0 | 0.00 | 0.00 | 0.00 | 63 | 970.2 |
| 20260505020242 | 62 | 242 | 0.0 | 0.0 | 0.00 | 0.00 | 0.00 | 62 | 970.1 |
| 20260505015739 | 62 | 242 | 0.0 | 0.0 | 0.00 | 0.00 | 0.00 | 61 | 970.1 |
| 20260505015241 | 62 | 242 | 0.0 | 0.0 | 0.00 | 0.00 | 0.00 | 60 | 970.1 |
| 20260505014740 | 62 | 242 | 0.0 | 1.0 | 0.00 | 0.00 | 0.00 | 60 | 970.0 |
| 20260505014237 | 63 | 242 | 0.0 | 1.0 | 0.00 | 0.00 | 0.00 | 59 | 969.9 |
| 20260505013738 | 63 | 242 | 0.0 | 1.0 | 0.00 | 0.00 | 0.00 | 59 | 969.8 |
| 20260505013236 | 64 | 242 | 0.0 | 0.0 | 0.00 | 0.00 | 0.00 | 58 | 969.8 |
| 20260505012736 | 64 | 242 | 0.0 | 0.0 | 0.00 | 0.00 | 0.00 | 57 | 969.8 |
| 20260505012235 | 65 | 242 | 0.0 | 2.0 | 0.00 | 0.00 | 0.00 | 55 | 969.7 |
| 20260505011736 | 65 | 242 | 0.0 | 2.0 | 0.00 | 0.00 | 0.00 | 54 | 969.7 |
| 20260505011237 | 66 | 242 | 0.0 | 1.0 | 0.00 | 0.00 | 0.00 | 54 | 969.7 |
| 20260505010735 | 66 | 242 | 0.0 | 0.0 | 0.00 | 0.00 | 0.00 | 53 | 969.6 |
| 20260505010236 | 67 | 242 | 0.0 | 3.0 | 0.00 | 0.00 | 0.00 | 53 | 969.6 |
| 20260505005733 | 67 | 242 | 0.0 | 3.0 | 0.00 | 0.00 | 0.00 | 52 | 969.6 |
| 20260505004230 | 67 | 177 | 0.0 | 3.0 | 0.00 | 0.00 | 0.00 | 51 | 969.3 |
| 20260505003729 | 68 | 257 | 0.0 | 3.0 | 0.00 | 0.00 | 0.00 | 52 | 969.3 |
| 20260505003230 | 68 | 197 | 0.0 | 2.0 | 0.00 | 0.00 | 0.00 | 49 | 969.2 |
| 20260505002729 | 69 | 197 | 0.0 | 4.0 | 0.00 | 0.00 | 0.00 | 50 | 969.2 |
| 20260505002229 | 69 | 197 | 0.0 | 5.0 | 0.00 | 0.00 | 0.00 | 50 | 969.2 |
| 20260505001730 | 70 | 217 | 0.0 | 5.0 | 0.00 | 0.00 | 0.00 | 49 | 969.2 |
| 20260505000727 | 71 | 240 | 0.0 | 4.0 | 0.00 | 0.00 | 0.00 | 47 | 969.2 |
| 20260505000226 | 71 | 240 | 1.0 | 6.0 | 0.00 | 0.00 | 0.00 | 45 | 969.2 |
| 20260504235726 | 72 | 219 | 0.0 | 6.0 | 0.00 | 0.00 | 0.00 | 45 | 969.0 |
| 20260504235227 | 72 | 165 | 1.0 | 11.0 | 0.00 | 0.00 | 0.00 | 44 | 969.0 |
| 20260504234726 | 73 | 236 | 2.0 | 11.0 | 0.00 | 0.00 | 0.00 | 44 | 969.0 |
| 20260504234225 | 73 | 175 | 2.0 | 8.0 | 0.00 | 0.00 | 0.00 | 44 | 968.9 |
| 20260504233226 | 74 | 165 | 2.0 | 7.0 | 0.00 | 0.00 | 0.00 | 42 | 968.8 |
| 20260504232726 | 74 | 182 | 2.0 | 8.0 | 0.00 | 0.00 | 0.00 | 42 | 968.8 |
| 20260504232221 | 74 | 179 | 1.0 | 8.0 | 0.00 | 0.00 | 0.00 | 42 | 968.8 |
| 20260504231222 | 75 | 196 | 3.0 | 11.0 | 0.00 | 0.00 | 0.00 | 42 | 968.7 |
| 20260504230721 | 75 | 195 | 3.0 | 14.0 | 0.00 | 0.00 | 0.00 | 42 | 968.7 |
| 20260504230222 | 75 | 212 | 3.0 | 14.0 | 0.00 | 0.00 | 0.00 | 42 | 968.6 |
| 20260504225722 | 75 | 186 | 4.0 | 13.0 | 0.00 | 0.00 | 0.00 | 42 | 968.6 |
| 20260504224722 | 76 | 190 | 2.0 | 11.0 | 0.00 | 0.00 | 0.00 | 42 | 968.6 |
| 20260504224221 | 76 | 148 | 2.0 | 11.0 | 0.00 | 0.00 | 0.00 | 42 | 968.6 |
| 20260504223722 | 76 | 269 | 2.0 | 10.0 | 0.00 | 0.00 | 0.00 | 41 | 968.6 |
| 20260504223221 | 76 | 238 | 4.0 | 10.0 | 0.00 | 0.00 | 0.00 | 41 | 968.7 |
| 20260504222721 | 76 | 176 | 5.0 | 14.0 | 0.00 | 0.00 | 0.00 | 40 | 968.6 |
| 20260504222222 | 76 | 186 | 4.0 | 14.0 | 0.00 | 0.00 | 0.00 | 40 | 968.6 |
| 20260504221220 | 76 | 226 | 4.0 | 15.0 | 0.00 | 0.00 | 0.00 | 42 | 968.6 |
| 20260504220217 | 77 | 148 | 4.0 | 16.0 | 0.00 | 0.00 | 0.00 | 42 | 968.6 |
| 20260504215718 | 77 | 175 | 4.0 | 11.0 | 0.00 | 0.00 | 0.00 | 41 | 968.5 |
| 20260504214718 | 77 | 216 | 3.0 | 15.0 | 0.00 | 0.00 | 0.00 | 41 | 968.7 |
| 20260504214217 | 77 | 174 | 3.0 | 13.0 | 0.00 | 0.00 | 0.00 | 41 | 968.7 |
| 20260504213711 | 77 | 216 | 2.0 | 13.0 | 0.00 | 0.00 | 0.00 | 41 | 968.6 |
| 20260504212708 | 77 | 339 | 5.0 | 16.0 | 0.00 | 0.00 | 0.00 | 43 | 968.7 |
| 20260504212209 | 77 | 217 | 3.0 | 16.0 | 0.00 | 0.00 | 0.00 | 43 | 968.7 |
| 20260504211707 | 77 | 211 | 4.0 | 13.0 | 0.00 | 0.00 | 0.00 | 42 | 968.6 |
| 20260504211206 | 77 | 178 | 5.0 | 15.0 | 0.00 | 0.00 | 0.00 | 43 | 968.7 |
| 20260504210706 | 77 | 175 | 3.0 | 15.0 | 0.00 | 0.00 | 0.00 | 44 | 968.7 |
| 20260504210205 | 77 | 252 | 5.0 | 13.0 | 0.00 | 0.00 | 0.00 | 43 | 968.8 |
| 20260504205705 | 77 | 336 | 5.0 | 12.0 | 0.00 | 0.00 | 0.00 | 44 | 968.8 |
| 20260504205205 | 77 | 157 | 4.0 | 11.0 | 0.00 | 0.00 | 0.00 | 43 | 968.9 |
| 20260504204705 | 77 | 233 | 4.0 | 11.0 | 0.00 | 0.00 | 0.00 | 43 | 968.9 |
| 20260504204205 | 77 | 215 | 4.0 | 11.0 | 0.00 | 0.00 | 0.00 | 45 | 968.8 |
| 20260504203705 | 77 | 140 | 3.0 | 11.0 | 0.00 | 0.00 | 0.00 | 43 | 968.9 |
| 20260504203205 | 77 | 186 | 3.0 | 13.0 | 0.00 | 0.00 | 0.00 | 45 | 969.0 |
| 20260504202707 | 77 | 148 | 3.0 | 13.0 | 0.00 | 0.00 | 0.00 | 43 | 969.1 |
| 20260504202200 | 77 | 163 | 4.0 | 11.0 | 0.00 | 0.00 | 0.00 | 45 | 969.1 |
| 20260504201653 | 77 | 207 | 5.0 | 11.0 | 0.00 | 0.00 | 0.00 | 43 | 969.2 |
| 20260504201147 | 77 | 174 | 2.0 | 11.0 | 0.00 | 0.00 | 0.00 | 44 | 969.2 |
| 20260504200642 | 77 | 126 | 2.0 | 7.0 | 0.00 | 0.00 | 0.00 | 43 | 969.2 |
| 20260504195630 | 76 | 184 | 3.0 | 10.0 | 0.00 | 0.00 | 0.00 | 44 | 969.4 |
| 20260504194617 | 77 | 298 | 3.0 | 14.0 | 0.00 | 0.00 | 0.00 | 43 | 969.5 |
| 20260504194111 | 77 | 180 | 3.0 | 11.0 | 0.00 | 0.00 | 0.00 | 43 | 969.5 |
| 20260504193606 | 76 | 163 | 4.0 | 12.0 | 0.00 | 0.00 | 0.00 | 45 | 969.6 |
| 20260504193100 | 76 | 245 | 4.0 | 12.0 | 0.00 | 0.00 | 0.00 | 43 | 969.7 |
| 20260504192553 | 77 | 194 | 3.0 | 12.0 | 0.00 | 0.00 | 0.00 | 43 | 969.7 |
| 20260504192047 | 77 | 161 | 2.0 | 12.0 | 0.00 | 0.00 | 0.00 | 43 | 969.8 |
| 20260504191541 | 76 | 286 | 2.0 | 8.0 | 0.00 | 0.00 | 0.00 | 43 | 969.9 |
| 20260504191035 | 76 | 311 | 3.0 | 11.0 | 0.00 | 0.00 | 0.00 | 46 | 970.1 |
| 20260504190023 | 76 | 216 | 4.0 | 11.0 | 0.00 | 0.00 | 0.00 | 43 | 970.1 |
| 20260504185518 | 76 | 306 | 3.0 | 11.0 | 0.00 | 0.00 | 0.00 | 47 | 970.1 |
| 20260504184000 | 75 | 307 | 3.0 | 10.0 | 0.00 | 0.00 | 0.00 | 46 | 970.4 |
| 20260504183454 | 75 | 215 | 3.0 | 9.0 | 0.00 | 0.00 | 0.00 | 46 | 970.4 |
| 20260504182947 | 76 | 129 | 3.0 | 11.0 | 0.00 | 0.00 | 0.00 | 45 | 970.5 |
| 20260504181935 | 76 | 205 | 2.0 | 7.0 | 0.00 | 0.00 | 0.00 | 49 | 970.6 |
| 20260504181430 | 75 | 167 | 1.0 | 7.0 | 0.00 | 0.00 | 0.00 | 46 | 970.6 |
| 20260504180924 | 75 | 256 | 1.0 | 9.0 | 0.00 | 0.00 | 0.00 | 47 | 970.6 |
| 20260504180419 | 75 | 171 | 2.0 | 9.0 | 0.00 | 0.00 | 0.00 | 44 | 970.6 |
| 20260504175912 | 74 | 195 | 2.0 | 8.0 | 0.00 | 0.00 | 0.00 | 48 | 970.7 |
| 20260504175405 | 74 | 211 | 2.0 | 8.0 | 0.00 | 0.00 | 0.00 | 47 | 970.7 |
| 20260504174900 | 74 | 128 | 2.0 | 9.0 | 0.00 | 0.00 | 0.00 | 46 | 970.8 |
| 20260504174353 | 74 | 190 | 2.0 | 9.0 | 0.00 | 0.00 | 0.00 | 49 | 970.8 |
| 20260504173848 | 74 | 322 | 2.0 | 8.0 | 0.00 | 0.00 | 0.00 | 47 | 970.8 |
| 20260504171824 | 73 | 301 | 4.0 | 12.0 | 0.00 | 0.00 | 0.00 | 49 | 971.0 |
| 20260504170811 | 73 | 264 | 3.0 | 10.0 | 0.00 | 0.00 | 0.00 | 50 | 971.1 |
| 20260504160230 | 70 | 329 | 4.0 | 10.0 | 0.00 | 0.00 | 0.00 | 51 | 971.9 |
| 20260504150721 | 69 | 340 | 4.0 | 10.0 | 0.00 | 0.00 | 0.00 | 49 | 972.9 |
| 20260504150214 | 68 | 294 | 3.0 | 8.0 | 0.00 | 0.00 | 0.00 | 51 | 972.9 |
| 20260504141209 | 64 | 325 | 4.0 | 10.0 | 0.00 | 0.00 | 0.00 | 53 | 972.7 |
| 20260504140710 | 64 | 292 | 2.0 | 9.0 | 0.00 | 0.00 | 0.00 | 56 | 972.7 |
| 20260504140209 | 63 | 207 | 1.0 | 5.0 | 0.00 | 0.00 | 0.00 | 61 | 972.6 |
| 20260504130659 | 53 | 337 | 0.0 | 0.0 | 0.00 | 0.00 | 0.00 | 83 | 972.4 |
| 20260504130159 | 52 | 338 | 0.0 | 0.0 | 0.00 | 0.00 | 0.00 | 85 | 972.3 |
| 20260504120151 | 40 | 208 | 0.0 | 0.0 | 0.00 | 0.00 | 0.00 | 92 | 972.4 |